Regional Weather Roundup
Issued by NWS

Home | Current Version | Previous Version | Graphics & Text | Print | Product List | Glossary On
Versions: 1 2 3 4 5 6 7 8 9 10 11 12 13 14 15 16 17 18 19 20 21 22 23 24 25 26 27 28 29 30 31 32 33 34 35 36 37 38 39 40 41 42 43 44 45 46 47 48 49 50
000
ASUS43 KFSD 190510
RWRSD

WEATHER ROUNDUP FOR SOUTH DAKOTA
NATIONAL WEATHER SERVICE SIOUX FALLS SD
1200 AM CDT FRI SEP 19 2014

NOTE: "FAIR" INDICATES FEW OR NO CLOUDS BELOW 12,000 FEET WITH NO
SIGNIFICANT WEATHER AND/OR OBSTRUCTIONS TO VISIBILITY.


SDZ001>005-009-010-012>017-190600-
NORTHWEST AND NORTH CENTRAL SOUTH DAKOTA

CITY           SKY/WX    TMP DP  RH WIND       PRES   REMARKS
BUFFALO          N/A     69  54  58 NW24G32   29.71F
FAITH            N/A     68  63  84 SE14      29.69F
MOBRIDGE       MOCLDY    66  61  84 SE14      29.68F
$$

SDZ012>016-024>037-041>051-057-063-072>074-190600-
SOUTHWEST AND SOUTH CENTRAL SOUTH DAKOTA

CITY           SKY/WX    TMP DP  RH WIND       PRES   REMARKS
RAPID CTY ARPT MOCLDY    69  56  62 SE6       29.71F
PIERRE         PTCLDY    68  61  78 SE9       29.71F
CUSTER         PTCLDY    68  46  45 VRB6      29.90F
ELLSWORTH AFB  MOCLDY    70  55  59 S8        29.70F
PHILIP         MOCLDY    68  61  78 SE7       29.69F
PINE RIDGE     CLEAR     69  62  78 S20G31    29.77F
WINNER         FAIR      69  62  78 S26G35    29.76F
$$

SDZ004>011-016>023-039-040-190600-
NORTHEAST SOUTH DAKOTA

CITY           SKY/WX    TMP DP  RH WIND       PRES   REMARKS
ABERDEEN       PTCLDY    66  57  72 S16       29.77S
WATERTOWN      CLOUDY    62  55  77 S20       29.83F
SISSETON         N/A     62  56  80 S10       29.79F
$$

SDZ017-020-022-023-036>040-048>070-190600-
SOUTHEAST SOUTH DAKOTA

CITY           SKY/WX    TMP DP  RH WIND       PRES   REMARKS
SIOUX FALLS    PTCLDY    63  55  75 S18       29.91S
HURON          PTCLDY    65  57  75 S15G25    29.80F
CHAMBERLAIN    CLEAR     62  60  94 SE8       29.78F
MITCHELL       CLOUDY    67  58  72 S17G25    29.83F
YANKTON        CLOUDY    64  55  72 SE14      29.90S
$$

ABBREVIATIONS USED IN REMARKS
   TC - TEMPERATURE IN CELSIUS
  WCI - WIND CHILL INDEX
   HX - HEAT INDEX
  VSB - VISIBILITY



USA.gov is the U.S. government's official web portal to all federal, state and local government web resources and services.